Regional Weather Roundup
Issued by NWS Cleveland, OH

Home | Current Version | Previous Version | Text Only | Print | Product List | Glossary Off
Versions: 1 2 3 4 5 6 7 8 9 10 11 12 13 14 15 16 17 18 19 20 21 22 23 24 25 26 27 28 29 30 31 32 33 34 35 36 37 38 39 40 41 42 43 44 45 46 47 48 49 50

000
ASUS41 KCLE 241212
RWRCLE
OHIO REGIONAL WEATHER ROUNDUP
NATIONAL WEATHER SERVICE WILMINGTON, OH
800 AM EDT WED MAY 24 2017

NOTE: "FAIR" INDICATES FEW OR NO CLOUDS BELOW 12,000 FEET WITH NO
SIGNIFICANT WEATHER AND/OR OBSTRUCTIONS TO VISIBILITY.

OHZ001>008-015>018-024>027-034-035-043-044-241300-
   NORTHWEST OHIO

CITY           SKY/WX    TMP DP  RH WIND       PRES   REMARKS
DEFIANCE       PTSUNNY   57  50  77 NE7       29.56F
FINDLAY        PTSUNNY   62  57  83 SE7       29.56F
TOLEDO EXPRESS FAIR      59  56  89 E7        29.58S
TOLEDO EXEC    FAIR      61  56  83 NE6       29.59F
LIMA           PTSUNNY   61  59  93 SE10      29.56F
$$

OHZ009>014-019>023-028>033-038-089-241300-
   NORTHEAST OHIO

CITY           SKY/WX    TMP DP  RH WIND       PRES   REMARKS
CLE-HOPKINS    CLOUDY    63  58  83 SE8       29.63S
CLE-LAKEFRONT  RAIN      60  56  86 SE8       29.61R FOG
CUY CO. ARPT   PTSUNNY   61  55  82 SE12      29.63S
LORAIN-ELYRIA    N/A    N/A N/A N/A MISG      29.61S
ASHTABULA      CLOUDY    58  53  84 SE8       29.66S
AKRON-CANTON   LGT RAIN  60  55  83 E7        29.63F
WOOSTER        CLOUDY    60  56  86 SE8       29.63S
MANSFIELD      CLOUDY    60  59  96 E7        29.61S
YOUNGSTOWN     LGT RAIN  56  53  90 SE9       29.67S
$$

OHZ042-051>053-060>062-070>072-077>081-241300-
  SOUTHWEST OHIO

CITY           SKY/WX    TMP DP  RH WIND       PRES   REMARKS
CINC-COVINGTON CLOUDY    61  59  93 SE7       29.54R
CINC-LUNKEN    FAIR      61  61 100 CALM      29.55R
HAMILTON       PTSUNNY   62  61  96 VRB3      29.56R
DAYTON         PTSUNNY   61  58  90 SE9       29.57R
WRIGHT-PAT AFB PTSUNNY   61  61 100 CALM      29.56S
DAYTON GENERAL FAIR      61  59  93 SE7       29.56R
WILMINGTON     FAIR      60  60 100 E5        29.56S FOG
$$

OHZ036-037-039>041-045>050-054>059-063>069-073>076-082>088-241300-
  CENTRAL AND SOUTHEAST OHIO

CITY           SKY/WX    TMP DP  RH WIND       PRES   REMARKS
COLUMBUS       CLOUDY    62  60  93 E7        29.58S
OSU AIRPORT    CLOUDY    62  60  93 E7        29.58F
BOLTON FIELD   CLOUDY    61  61 100 E7        29.59S
RICKENBACK AFB CLOUDY    60  60  99 E6        29.58S
NEWARK         CLOUDY    62  57  83 E7        29.59S
MARION         FAIR      61  58  90 SE7       29.59S
LANCASTER      CLOUDY    63  58  83 E3        29.59S
ZANESVILLE     LGT RAIN  61  57  87 E7        29.60S
NEW PHILLY     CLOUDY    61  56  83 VRB5      29.63S
$$




USA.gov is the U.S. government's official web portal to all federal, state and local government web resources and services.